Wenatchee, WA

5:51 AM PST on November 23, 2017 (GMT -0800)
Pangborn Memorial

Weather History for KEAT - December, 2013

Change the Weather History Date:

Monday, December 2, 2013

  Actual Average Record
Temperature  
Mean Temperature 35 °F 28 °F  
Max Temperature 43 °F 34 °F 58 °F (1975)
Min Temperature 26 °F 23 °F 5 °F (2005)
Degree Days  
Heating Degree Days 30 37  
Month to date heating degree days 57 74  
Since 1 July heating degree days 1898 1956  
Cooling Degree Days 0 0  
Month to date cooling degree days 0 0  
Year to date cooling degree days 383 249  
Moisture  
Dew Point 25 °F    
Average Humidity 70    
Maximum Humidity 93    
Minimum Humidity 45    
Precipitation  
Precipitation T in 0.09 in 0.78 in (1980)
Month to date precipitation 0.27 0.18  
Year to date precipitation 12.57 14.73  
Snow  
Snow T in 0.50 in - ()
Month to date snowfall T 0.9  
Since 1 July snowfall 3.0 8.8  
Snow Depth T in    
Sea Level Pressure  
Sea Level Pressure 29.80 in    
Wind  
Wind Speed 13 mph (WNW)    
Max Wind Speed 28 mph    
Max Gust Speed 46 mph    
Visibility 8 miles    
Events Snow    
T = Trace of Precipitation, MM = Missing Value Source: NWS Daily Summary

Daily Weather History Graph

Daily Weather History Graph

Search for Another Location

Airport or City:

Trip Planner

Search our weather history database for the weather conditions in past years. The results will help you decide how hot, cold, wet, or windy it might be!

Date:

Astronomy

Dec. 02, 2013 Rise Set
Actual Time 7:28 AM PST 4:11 PM PST
Civil Twilight 6:53 AM PST 4:46 PM PST
Nautical Twilight 6:15 AM PST 5:25 PM PST
Astronomical Twilight 5:38 AM PST 6:02 PM PST
Moon 6:57 AM PST (12/2) 4:21 PM PST (12/2)
Length of Visible Light 9h 52m
Length of Day
8h 42m
Waning Crescent, 0% of the Moon is Illuminated
Dec 2
Waning Crescent
Dec 2
New
Dec 9
First Quarter
Dec 17
Full
Dec 25
Last Quarter

Hourly Weather History & Observations

Time (PST) Temp. Windchill Dew Point Humidity Pressure Visibility Wind Dir Wind Speed Gust Speed Precip Events Conditions
12:55 AM 45.0 °F 35.6 °F 25.0 °F 46% 29.64 in 10.0 mi West 27.6 mph 46.0 mph N/A   Clear
1:55 AM 39.9 °F 31.8 °F 28.9 °F 65% 29.65 in 10.0 mi NW 15.0 mph - N/A   Clear
2:55 AM 37.0 °F 27.7 °F 28.9 °F 73% 29.66 in 10.0 mi NW 16.1 mph - N/A   Clear
3:55 AM 36.0 °F 27.1 °F 28.9 °F 76% 29.68 in 10.0 mi WNW 13.8 mph - N/A   Clear
4:55 AM 34.0 °F 26.0 °F 28.0 °F 79% 29.70 in 10.0 mi NNW 10.4 mph - N/A   Clear
5:55 AM 33.1 °F 24.9 °F 26.1 °F 75% 29.73 in 10.0 mi NW 10.4 mph - N/A   Clear
6:55 AM 30.9 °F - 26.1 °F 82% 29.74 in 10.0 mi Calm Calm - N/A   Clear
7:55 AM 32.0 °F 23.6 °F 28.9 °F 88% 29.75 in 10.0 mi West 10.4 mph - N/A   Scattered Clouds
8:55 AM 34.0 °F 27.2 °F 28.0 °F 79% 29.77 in 10.0 mi WNW 8.1 mph - N/A   Overcast
9:03 AM 33.8 °F 26.4 °F 28.4 °F 81% 29.75 in 1.8 mi NW 9.2 mph - 0.00 in Snow Light Snow
9:07 AM 33.8 °F 25.8 °F 28.4 °F 81% 29.75 in 0.8 mi WNW 10.4 mph - 0.00 in Snow Light Snow
9:17 AM 32.0 °F 25.6 °F 30.2 °F 93% 29.75 in 1.0 mi WNW 6.9 mph - 0.00 in Snow Light Snow
9:23 AM 32.0 °F 25.6 °F 30.2 °F 93% 29.75 in 3.0 mi WNW 6.9 mph - 0.00 in Snow Light Snow
9:33 AM 32.0 °F 25.6 °F 30.2 °F 93% 29.74 in 1.8 mi West 6.9 mph - 0.00 in Snow Light Snow
9:41 AM 32.0 °F 25.6 °F 30.2 °F 93% 29.75 in 2.5 mi NW 6.9 mph - 0.00 in Snow Light Snow
9:47 AM 33.8 °F 29.6 °F 30.2 °F 87% 29.75 in 3.0 mi North 4.6 mph - 0.00 in Snow Light Snow
9:52 AM 33.8 °F 27.7 °F 30.2 °F 87% 29.75 in 6.0 mi NNW 6.9 mph - 0.00 in Snow Light Snow
9:55 AM 34.0 °F 28.0 °F 30.9 °F 89% 29.77 in 9.0 mi NNW 6.9 mph - 0.00 in   Overcast
10:55 AM 37.0 °F 29.3 °F 28.0 °F 70% 29.77 in 10.0 mi WNW 11.5 mph - N/A   Scattered Clouds
11:55 AM 39.0 °F 31.4 °F 26.1 °F 60% 29.76 in 10.0 mi NW 12.7 mph - N/A   Clear
12:55 PM 41.0 °F 32.5 °F 21.0 °F 45% 29.76 in 10.0 mi WNW 17.3 mph 24.2 mph N/A   Clear
1:55 PM 39.9 °F 31.1 °F 19.9 °F 45% 29.78 in 10.0 mi WNW 17.3 mph 24.2 mph N/A   Mostly Cloudy
2:55 PM 39.9 °F 32.9 °F 21.9 °F 49% 29.81 in 10.0 mi West 11.5 mph - N/A   Scattered Clouds
3:55 PM 37.9 °F 28.9 °F 21.0 °F 51% 29.83 in 10.0 mi WNW 16.1 mph - N/A   Overcast
4:55 PM 37.0 °F - 21.0 °F 52% 29.85 in 10.0 mi North - - N/A   Mostly Cloudy
5:55 PM 36.0 °F 29.0 °F 21.0 °F 55% 29.87 in 10.0 mi WNW 9.2 mph - N/A   Overcast
6:55 PM 37.0 °F 29.3 °F 19.9 °F 50% 29.89 in 10.0 mi WNW 11.5 mph - N/A   Overcast
7:55 PM 34.0 °F 28.0 °F 21.0 °F 59% 29.92 in 10.0 mi NNE 6.9 mph - N/A   Overcast
8:55 PM 32.0 °F 27.5 °F 16.0 °F 52% 29.95 in 10.0 mi ENE 4.6 mph - N/A   Overcast
9:55 PM 32.0 °F 24.8 °F 16.0 °F 52% 29.99 in 10.0 mi SE 8.1 mph - N/A   Overcast
10:31 PM 32.0 °F 24.8 °F 17.6 °F 55% 29.97 in 10.0 mi SSE 8.1 mph - N/A   Overcast
10:47 PM 30.2 °F 22.6 °F 23.0 °F 75% 29.99 in 9.0 mi SSW 8.1 mph - 0.00 in   Overcast
10:55 PM 30.0 °F 22.4 °F 24.1 °F 79% 30.03 in 10.0 mi SW 8.1 mph - 0.00 in   Overcast
11:55 PM 30.0 °F - 24.1 °F 79% 30.05 in 10.0 mi Calm Calm - N/A   Overcast